STARLINK-1477, 45754

Orbit data source: Space-Track

STARLINK-1477, 45754 is a payload satellite owned by SpaceX/Seattle (US) in LEO that was launched on Sat, 13 Jun 2020 UTC via an FALCON 9 launch vehicle from the Air Force Eastern Test Range (AFETR). Payload-class satellites include a variety of spacecraft equipped with specific instruments for various scientific and technological missions. These include communications satellites like Starlink; space stations such as the ISS; scientific satellites like the Hubble; Earth observation satellites from companies like Planet Labs, Umbra, and HawkEye 360; GPS; miniature CubeSats for education and research; and military/defense satellites.

Loading next visibility...
Identifier
45754, 2020-038AA
Orbit
LEO
Country
Flag of USUS
Related business
Manufacturer
SpaceX/Seattle
Mission
Operational Commercial Communications
Bus & Motor
STARLINK, Unknown motor
Mass
260 kg wet, ~248 kg dry
Launch date (UTC)
2020-06-13 (5 years ago)
Launch vehicle
FALCON 9
Launch site
Air Force Eastern Test Range (AFETR)
Object type
Payload
Rocket body
Debris
Shape & HBR
Box + 1 Pan, 10.1 m
Radar Cross Section
13.562 m², Large (>1 m²)

Expand to show TLE details & history
Last TLE update: 21 hours ago

TLE from 21 hours ago
0 STARLINK-1477
1 45754U 20038AA  25299.82518285  .00000494  00000-0  52069-4 0  9997
2 45754  53.0534  97.5568 0001384  89.0908 271.0239 15.06393169296304
Epoch: 2025-10-26T19:48Z
TLE epoch observation values (Epoch: 2025-10-26T19:48:15.798Z)
Latitude
-0.00005°
Longitude
125.05511°
Altitude
548.095 km
Speed
7.589 km/s
True Right ascension
06h 30m 13s
True Declination
0° 00' 00"
Sunlit
Object was in full shadow at epoch
Visualization orbit readout
Latitude
Unknown
Longitude
Unknown
Altitude
Unknown
Speed
Unknown
Apparent Right ascension
Unknown
Apparent Declination
Unknown
Sunlit
N/A
Visualization observer readout
Local Sidereal Time
12:16:58
Azimuth
Unknown
Elevation
Unknown
Doppler factor
Unknown
Orbital elements
Apogee altitude
548.462 km
Perigee altitude
546.545 km
Semi-major axis
6,925.64 km
Eccentricity
0.00014
Inclination
53.0534°
RAAN
97.5568°
Arg. of periapsis
89.0908°
True anomaly
271.00804°
Mean anomaly
271.0239°
Eccentric anomaly
271.01597°
Mean motion
3.76577 °/min
Orbital period
95.6 mins
BSTAR
0.000052069
Loading maneuver chart data...
Computing Atmospheric mass density...

Documentation

Showing up to 5 results
|